When you browse on this site, cookies collect data to enhance your experience and personalize the content and advertising you see.
Visit our Privacy Policy to learn more. By continuing to use the site, you agree to this use of cookies and data.
  • In Germany
  • List of Countries
  • For 7 days
  • Water Temperature
  • Weather Map
  • Weather Widgets
  • user-avatar
    Login

    Hourly Weather Abovyan

    Today, 24 October, Thursday

    Time Temperature Precipitation Wind Pressure Humidity
    00:00 +12°C° 0 mm 1 mps 673 mmHg 62%
    01:00 +12°C° 0 mm 1 mps 673 mmHg 64%
    02:00 +11°C° 0 mm 1 mps 673 mmHg 65%
    03:00 +11°C° 0 mm 1 mps 673 mmHg 66%
    04:00 +11°C° 0 mm 1 mps 673 mmHg 66%
    05:00 +10°C° 0 mm 1 mps 673 mmHg 67%
    06:00 +10°C° 0 mm 1 mps 673 mmHg 67%
    07:00 +12°C° 0 mm 1 mps 674 mmHg 59%
    08:00 +14°C° 0 mm 1 mps 674 mmHg 52%
    09:00 +16°C° 0 mm 1 mps 675 mmHg 44%
    10:00 +18°C° 0 mm 1 mps 675 mmHg 42%
    11:00 +19°C° 0 mm 1 mps 675 mmHg 40%
    12:00 +20°C° 0 mm 1 mps 675 mmHg 38%
    13:00 +21°C° 0 mm 1 mps 674 mmHg 38%
    14:00 +21°C° 0 mm 1 mps 674 mmHg 37%
    15:00 +20°C° 0 mm 2 mps 674 mmHg 37%
    16:00 +19°C° 0 mm 1 mps 674 mmHg 42%
    17:00 +16°C° 0 mm 1 mps 673 mmHg 46%
    18:00 +14°C° 0 mm 0 mps 673 mmHg 51%
    19:00 +14°C° 0 mm 1 mps 673 mmHg 52%
    20:00 +14°C° 0 mm 1 mps 673 mmHg 53%
    21:00 +14°C° 0 mm 1 mps 674 mmHg 55%
    22:00 +13°C° 0 mm 1 mps 674 mmHg 56%
    23:00 +13°C° 0 mm 1 mps 673 mmHg 57%

    Tomorrow, 25 October, Friday

    Time Temperature Precipitation Wind Pressure Humidity
    00:00 +12°C° 0 mm 1 mps 673 mmHg 59%
    01:00 +12°C° 0 mm 1 mps 673 mmHg 61%
    02:00 +11°C° 0 mm 1 mps 673 mmHg 63%
    03:00 +11°C° 0 mm 1 mps 673 mmHg 65%
    04:00 +11°C° 0 mm 1 mps 673 mmHg 66%
    05:00 +10°C° 0 mm 1 mps 672 mmHg 67%
    06:00 +10°C° 0 mm 1 mps 672 mmHg 68%
    07:00 +12°C° 0 mm 1 mps 673 mmHg 60%
    08:00 +14°C° 0 mm 1 mps 673 mmHg 52%
    09:00 +16°C° 0 mm 1 mps 674 mmHg 44%
    10:00 +18°C° 0 mm 1 mps 674 mmHg 41%
    11:00 +19°C° 0 mm 2 mps 674 mmHg 39%
    12:00 +20°C° 0 mm 2 mps 673 mmHg 37%
    13:00 +20°C° 0 mm 2 mps 673 mmHg 36%
    14:00 +20°C° 0 mm 2 mps 673 mmHg 35%
    15:00 +21°C° 0 mm 1 mps 673 mmHg 34%
    16:00 +20°C° 0 mm 1 mps 672 mmHg 39%
    17:00 +18°C° 0 mm 1 mps 672 mmHg 43%
    18:00 +15°C° 0 mm 1 mps 672 mmHg 48%
    19:00 +14°C° 0 mm 1 mps 672 mmHg 49%
    20:00 +14°C° 0 mm 1 mps 672 mmHg 51%
    21:00 +13°C° 0 mm 1 mps 672 mmHg 52%
    22:00 +13°C° 0 mm 1 mps 672 mmHg 54%
    23:00 +13°C° 0 mm 1 mps 672 mmHg 56%

    Day after tomorrow, 26 October, Saturday

    Time Temperature Precipitation Wind Pressure Humidity
    00:00 +12°C° 0 mm 1 mps 671 mmHg 58%
    01:00 +12°C° 0 mm 1 mps 671 mmHg 59%
    02:00 +12°C° 0 mm 1 mps 671 mmHg 60%
    03:00 +11°C° 0 mm 1 mps 671 mmHg 61%
    04:00 +11°C° 0 mm 1 mps 671 mmHg 62%
    05:00 +11°C° 0 mm 1 mps 671 mmHg 62%
    06:00 +10°C° 0 mm 1 mps 671 mmHg 63%
    07:00 +12°C° 0 mm 1 mps 672 mmHg 56%
    08:00 +15°C° 0 mm 1 mps 672 mmHg 48%
    09:00 +16°C° 0 mm 0 mps 673 mmHg 41%
    10:00 +19°C° 0 mm 1 mps 673 mmHg 38%
    11:00 +20°C° 0 mm 1 mps 673 mmHg 36%
    12:00 +20°C° 0 mm 2 mps 673 mmHg 33%
    13:00 +21°C° 0.1 mm 1 mps 673 mmHg 34%
    14:00 +21°C° 0.1 mm 1 mps 672 mmHg 35%
    15:00 +21°C° 0.1 mm 1 mps 672 mmHg 36%
    16:00 +20°C° 0.1 mm 1 mps 672 mmHg 42%
    17:00 +17°C° 0.1 mm 2 mps 672 mmHg 48%
    18:00 +15°C° 0.1 mm 2 mps 672 mmHg 54%
    19:00 +15°C° 0 mm 2 mps 672 mmHg 56%
    20:00 +14°C° 0 mm 2 mps 672 mmHg 57%
    21:00 +14°C° 0 mm 2 mps 672 mmHg 59%
    22:00 +13°C° 0 mm 2 mps 672 mmHg 60%
    23:00 +13°C° 0 mm 2 mps 672 mmHg 62%

    27 October, Sunday

    Time Temperature Precipitation Wind Pressure Humidity
    00:00 +12°C° 0 mm 1 mps 672 mmHg 64%
    01:00 +12°C° 0 mm 1 mps 672 mmHg 65%
    02:00 +11°C° 0 mm 1 mps 672 mmHg 66%
    03:00 +11°C° 0 mm 1 mps 672 mmHg 67%
    04:00 +10°C° 0 mm 1 mps 672 mmHg 68%
    05:00 +10°C° 0 mm 1 mps 672 mmHg 69%
    06:00 +10°C° 0 mm 1 mps 672 mmHg 70%
    07:00 +12°C° 0 mm 1 mps 673 mmHg 62%
    08:00 +14°C° 0 mm 1 mps 673 mmHg 54%
    09:00 +16°C° 0 mm 1 mps 674 mmHg 46%
    10:00 +18°C° 0 mm 1 mps 674 mmHg 43%
    11:00 +19°C° 0 mm 1 mps 674 mmHg 41%
    12:00 +20°C° 0 mm 1 mps 674 mmHg 38%
    13:00 +20°C° 0 mm 1 mps 674 mmHg 37%
    14:00 +21°C° 0 mm 1 mps 674 mmHg 36%
    15:00 +21°C° 0 mm 1 mps 673 mmHg 35%
    16:00 +19°C° 0 mm 1 mps 673 mmHg 39%
    17:00 +16°C° 0 mm 1 mps 673 mmHg 44%
    18:00 +13°C° 0 mm 0 mps 673 mmHg 49%
    19:00 +14°C° 0 mm 1 mps 673 mmHg 50%
    20:00 +13°C° 0 mm 1 mps 673 mmHg 52%
    21:00 +13°C° 0 mm 1 mps 674 mmHg 53%
    22:00 +13°C° 0 mm 1 mps 674 mmHg 54%
    23:00 +12°C° 0 mm 1 mps 674 mmHg 55%

    28 October, Monday

    Time Temperature Precipitation Wind Pressure Humidity
    00:00 +12°C° 0 mm 1 mps 674 mmHg 56%
    01:00 +11°C° 0 mm 1 mps 674 mmHg 57%
    02:00 +11°C° 0 mm 1 mps 673 mmHg 59%
    03:00 +11°C° 0 mm 1 mps 673 mmHg 60%
    04:00 +10°C° 0 mm 1 mps 673 mmHg 62%
    05:00 +10°C° 0 mm 1 mps 673 mmHg 63%
    06:00 +10°C° 0 mm 1 mps 673 mmHg 64%
    07:00 +12°C° 0 mm 1 mps 674 mmHg 56%
    08:00 +14°C° 0 mm 1 mps 675 mmHg 48%
    09:00 +16°C° 0 mm 1 mps 675 mmHg 41%
    10:00 +18°C° 0 mm 1 mps 675 mmHg 39%
    11:00 +19°C° 0 mm 1 mps 675 mmHg 37%
    12:00 +19°C° 0 mm 2 mps 675 mmHg 35%
    13:00 +20°C° 0 mm 2 mps 675 mmHg 34%
    14:00 +20°C° 0 mm 2 mps 674 mmHg 33%
    15:00 +20°C° 0 mm 2 mps 674 mmHg 32%
    16:00 +19°C° 0 mm 1 mps 674 mmHg 37%
    17:00 +16°C° 0 mm 1 mps 673 mmHg 42%
    18:00 +14°C° 0 mm 1 mps 673 mmHg 47%
    19:00 +14°C° 0 mm 1 mps 673 mmHg 46%
    20:00 +14°C° 0 mm 1 mps 673 mmHg 46%
    21:00 +13°C° 0 mm 1 mps 673 mmHg 45%
    22:00 +13°C° 0 mm 1 mps 673 mmHg 47%
    23:00 +12°C° 0 mm 1 mps 673 mmHg 49%

    29 October, Tuesday

    Time Temperature Precipitation Wind Pressure Humidity
    00:00 +12°C° 0 mm 1 mps 673 mmHg 50%
    01:00 +12°C° 0 mm 1 mps 672 mmHg 52%
    02:00 +11°C° 0 mm 1 mps 672 mmHg 54%
    03:00 +11°C° 0 mm 1 mps 672 mmHg 56%
    04:00 +11°C° 0 mm 1 mps 672 mmHg 57%
    05:00 +10°C° 0 mm 1 mps 672 mmHg 57%
    06:00 +10°C° 0 mm 1 mps 671 mmHg 58%
    07:00 +12°C° 0 mm 1 mps 672 mmHg 51%
    08:00 +15°C° 0 mm 1 mps 672 mmHg 44%
    09:00 +18°C° 0 mm 1 mps 673 mmHg 37%
    10:00 +19°C° 0 mm 1 mps 673 mmHg 34%
    11:00 +20°C° 0 mm 1 mps 673 mmHg 32%
    12:00 +20°C° 0 mm 2 mps 672 mmHg 30%
    13:00 +20°C° 0 mm 2 mps 672 mmHg 29%
    14:00 +21°C° 0 mm 2 mps 672 mmHg 28%
    15:00 +22°C° 0 mm 1 mps 671 mmHg 27%
    16:00 +20°C° 0 mm 1 mps 671 mmHg 32%
    17:00 +18°C° 0 mm 1 mps 671 mmHg 36%
    18:00 +15°C° 0 mm 1 mps 670 mmHg 41%
    19:00 +15°C° 0 mm 1 mps 670 mmHg 41%
    20:00 +14°C° 0 mm 1 mps 670 mmHg 42%
    21:00 +14°C° 0 mm 2 mps 671 mmHg 42%
    22:00 +13°C° 0 mm 1 mps 670 mmHg 44%
    23:00 +13°C° 0 mm 1 mps 670 mmHg 47%

    30 October, Wednesday

    Time Temperature Precipitation Wind Pressure Humidity
    00:00 +12°C° 0 mm 1 mps 670 mmHg 49%
    01:00 +12°C° 0 mm 1 mps 670 mmHg 50%
    02:00 +12°C° 0 mm 1 mps 670 mmHg 52%
    03:00 +11°C° 0 mm 1 mps 670 mmHg 54%
    04:00 +11°C° 0 mm 1 mps 670 mmHg 55%
    05:00 +11°C° 0 mm 1 mps 670 mmHg 56%
    06:00 +10°C° 0 mm 1 mps 670 mmHg 57%
    07:00 +13°C° 0 mm 1 mps 670 mmHg 50%
    08:00 +15°C° 0 mm 1 mps 671 mmHg 43%
    09:00 +18°C° 0 mm 1 mps 671 mmHg 36%
    10:00 +19°C° 0 mm 1 mps 671 mmHg 35%
    11:00 +19°C° 0 mm 2 mps 671 mmHg 33%
    12:00 +20°C° 0 mm 2 mps 671 mmHg 31%
    13:00 +20°C° 0 mm 2 mps 671 mmHg 31%
    14:00 +21°C° 0 mm 2 mps 671 mmHg 30%
    15:00 +21°C° 0 mm 2 mps 670 mmHg 30%
    16:00 +19°C° 0 mm 2 mps 670 mmHg 33%
    17:00 +17°C° 0 mm 2 mps 670 mmHg 37%
    18:00 +16°C° 0 mm 2 mps 670 mmHg 41%
    19:00 +16°C° 0.1 mm 2 mps 670 mmHg 45%
    20:00 +14°C° 0.1 mm 3 mps 670 mmHg 49%
    21:00 +14°C° 0.1 mm 3 mps 671 mmHg 54%
    22:00 +14°C° 0.1 mm 3 mps 671 mmHg 57%
    23:00 +14°C° 0.1 mm 2 mps 670 mmHg 60%
    Show more